Regional Weather Roundup
Issued by NWS

Home | Current Version | Previous Version | Graphics & Text | Print | Product List | Glossary Off
Versions: 1 2 3 4 5 6 7 8 9 10 11 12 13 14 15 16 17 18 19 20 21 22 23 24 25 26 27 28 29 30 31 32 33 34 35 36 37 38 39 40 41 42 43 44 45 46 47 48 49 50

000
ASUS43 KTOP 272108
RWRKS

WEATHER ROUNDUP FOR KANSAS
NATIONAL WEATHER SERVICE GOODLAND KS
400 PM CDT WED MAY 27 2015

NOTE:  "FAIR" INDICATES FEW OR NO CLOUDS BELOW 12,000 FEET WITH NO
SIGNIFICANT WEATHER AND/OR OBSTRUCTIONS TO VISIBILITY.

KSZ001>006-013>018-027>032-041>047-272200-
NORTHWEST KANSAS

CITY           SKY/WX    TMP DP  RH WIND       PRES   REMARKS
GOODLAND       MOSUNNY   75  61  61 SE18G25   29.99F
HAYS           MOSUNNY   79  61  53 SE18G28   30.04F
HILL CITY      MOSUNNY   74  59  59 SE12      30.04F
RUSSELL        MOSUNNY   79  61  53 SE17G26   30.04F
$$

KSZ061>065-074>080-084>089-272200-
SOUTHWEST KANSAS

CITY           SKY/WX    TMP DP  RH WIND       PRES   REMARKS
DODGE CITY     MOSUNNY   80  61  52 SE20G28   30.02F
ELKHART          N/A     84  52  33 S8          N/A
GARDEN CITY    MOSUNNY   80  57  45 SE24G35   29.97F
GREAT BEND     MOSUNNY   77  63  61 SE16G22   30.04F
LIBERAL        MOSUNNY   84  61  45 SE17      29.99F
PRATT          MOSUNNY   79  59  50 SE15G21   30.05F
$$

KSZ066>073-081>083-090>101-272200-
SOUTHEAST KANSAS

CITY           SKY/WX    TMP DP  RH WIND       PRES   REMARKS
CHANUTE        FAIR      82  66  58 VRB5      30.07F
COFFEYVILLE    SUNNY     83  65  54 MISG      30.06F
HUTCHINSON     MOSUNNY   82  61  48 SE15      30.06F
MEDICINE LODGE   N/A     82  63  52 SE12G21   30.02F
NEWTON         MOSUNNY   81  61  50 SE12      30.10F
PARSONS        MOSUNNY   83  65  54 CALM      30.08F
WICHITA INTL   PTSUNNY   81  63  54 SE12      30.06F
WICHITA JABRA  SUNNY     81  62  52 SE10G17   30.06F
WICHITA MCCONL MOSUNNY   81  63  54 SE8       30.06F
WINFIELD       MOSUNNY   82  64  54 SE13      30.06F
$$

KSZ007>012-019>026-033>040-048>060-102>105-272200-
NORTHEAST KANSAS

CITY           SKY/WX    TMP DP  RH WIND       PRES   REMARKS
CONCORDIA      PTSUNNY   80  55  42 S8        30.08F
EMPORIA        MOSUNNY   80  61  52 SE7       30.09F
LAWRENCE       MOSUNNY   82  53  36 S7        30.09S
MANHATTAN      PTSUNNY   80  57  45 SE10      30.08S
MARYSVILLE     PTSUNNY   79  52  38 S8        30.08S
OLATHE IND     MOSUNNY   81  51  35 SE9       30.10F
OLATHE EXE     MOSUNNY   79  54  41 S6        30.09S
SALINA         PTSUNNY   81  62  52 SE14      30.08F
TOPEKA BILLARD MOSUNNY   81  52  36 SE7       30.09S
TOPEKA FORBES  MOSUNNY   81  54  39 SE9       30.09S
$$


USA.gov is the U.S. government's official web portal to all federal, state and local government web resources and services.